Flag for USA

Past Weather in Irving, Texas, USA — Yesterday and Last 2 Weeks

Now
92 °F

Passing clouds.


Feels Like: 100 °F
Forecast: 94 / 78 °F
Wind: 10 mph from Southeast

Location: Dallas / Fort Worth International Airport

Current Time: Jul 4, 2020 at 9:06:11 pm

Latest Report: Jul 4, 2020 at 7:53 pm


Visibility: 10 mi

Pressure: 29.78 "Hg

Humidity: 52%

Dew Point: 72 °F

Location of IrvingLocation

Past Weather in Irving — Graph

°F

Irving Temperature Yesterday

Maximum temperature yesterday: 97 °F (at 3:53 pm)
Minimum temperature yesterday: 76 °F (at 4:53 am)
Average temperature yesterday: 86 °F

High & Low Weather Summary for the Past Weeks

 TemperatureHumidityPressure
High97 °F (Jul 3, 3:53 pm)100% (Jun 19, 11:35 pm)30.06 "Hg (Jun 19, 11:35 pm)
Low66 °F (Jun 22, 4:01 am)36% (Jul 3, 3:53 pm)29.68 "Hg (Jun 28, 7:53 pm)
Average81 °F76%29.87 "Hg
* Reported Jun 19 6:53 pm — Jul 4 6:53 pm, Irving. Weather by CustomWeather, © 2020

Note: Actual official high and low records may vary slightly from our data, if they occured in-between our weather recording intervals... More about our weather records

Irving Weather History for the Previous 24 Hours

Scroll right to see more
 ConditionsComfort  
Time TempWeatherWind HumidityBarometerVisibility
6:53 pm
Sat, Jul 4
94 °FPassing clouds.10 mph51%29.77 "Hg10 mi
5:53 pm94 °FPassing clouds.9 mph52%29.79 "Hg10 mi
4:53 pm94 °FScattered clouds.8 mph54%29.82 "Hg10 mi
3:53 pm95 °FScattered clouds.12 mph52%29.85 "Hg10 mi
2:53 pm93 °FScattered clouds.8 mph54%29.87 "Hg10 mi
1:53 pm94 °FPartly sunny.8 mph51%29.89 "Hg10 mi
12:53 pm94 °FPartly sunny.8 mph51%29.90 "Hg10 mi
11:53 am91 °FPartly sunny.6 mph56%29.90 "Hg10 mi
10:53 am87 °FPartly sunny.7 mph61%29.90 "Hg10 mi
9:53 am84 °FPartly sunny.7 mph65%29.90 "Hg10 mi
8:53 am81 °FPartly sunny.8 mph72%29.90 "Hg10 mi
7:53 am77 °FPartly sunny.9 mph77%29.89 "Hg10 mi
6:53 am74 °FPartly sunny.7 mph82%29.90 "Hg10 mi
5:53 am75 °FPassing clouds.6 mph79%29.88 "Hg10 mi
4:53 am75 °FPassing clouds.9 mph79%29.88 "Hg10 mi
3:53 am76 °FPassing clouds.9 mph80%29.89 "Hg10 mi
2:53 am77 °FClear.7 mph79%29.89 "Hg10 mi
1:53 am77 °FPassing clouds.6 mph82%29.89 "Hg10 mi
12:53 am79 °FPassing clouds.8 mph79%29.90 "Hg10 mi
11:53 pm
Fri, Jul 3
79 °FPassing clouds.8 mph77%29.91 "Hg10 mi
10:53 pm82 °FPassing clouds.14 mph67%29.90 "Hg10 mi
9:53 pm83 °FPassing clouds.16 mph65%29.90 "Hg10 mi
Weather by CustomWeather, © 2020

See weather overview